Погода в Маклаках

Россия / Калужская область     54°01′50″N   34°51′55″E
темп.,
°C
ветер,
м/с
пор.,
м/с
влажн.,
%
обл.,
%
осадки,
мм/ч
давл.,
гПа
погр.,
м
21 апреля, ср
ср2100:00+2св3697100 0.0 1010470
03:00+2с3598100 0.1 1008475
06:00+2сз3698100 0.3 1006482
09:00+3зсз3597100 0.3 1007524
12:00+4з3583100 0.1 1008729
15:00+6зюз4572100 0.1 10091011
18:00+5юз3680100 0.1 1010387
21:00+5ююз3887100 0.1 1012308
22 апреля, чт
чт2200:00+4ююз41095100 0.3 1013360
03:00+4ююз399644 0.6 1013301
06:00+3ю399728 0.0 1014278
09:00+8ююз488259 0.0 1015464
12:00+11ююз587311 0.0 1014795
15:00+13ююз586737 0.9 10131347
18:00+12ююз5107781 1.8 1013837
21:00+8ю411915 2.3 1014289
23 апреля, пт
пт2300:00+8ю4139296 0.2 1014380
03:00+7ю4129356 0.2 1014379
06:00+6ю4119787 0.3 1014403
09:00+9ю4888100 0.6 1014593
12:00+11ююз4118196 0.3 10131336
15:00+6ссз229085 1.6 1014283
18:00+4ссз3594100 2.2 1014322
21:00+4сз3596100 2.7 1013518
24 апреля, сб
сб2400:00+3сз5995100 1.3 1011608
03:00+3з2798100 4.5 1010548
06:00+3з3796100 1.1 1010513
09:00+5з577850 1.3 1010863
12:00+7зюз575375 0.1 10101848
15:00+7зюз6758100 1.1 10101826
18:00+5зюз4769100 0.7 10101172
21:00+2юз398547 0.9 1011264
25 апреля, вс
вс2500:00+1зюз399344 0.0 1011334
03:000зюз310967 0.0 1011303
06:000юз399569 0.0 1012309
09:00+4зюз577330 0.1 10111013
12:00+7зюз5751100 0.5 10112024
15:00+6юз6951100 1.6 10111958
18:00+5зюз596499 0.3 10111246
21:00+3юз5979100 0.5 10111117